This is the latest recevied weather packets stored in our database for station/object KD7ECD. If no packets are shown the sender has not sent any weather packets the latest 10 day(s).
| Time | Temp. | Humidity | Pressure | Rain* | Wind** | Luminosity | Snow |
|---|---|---|---|---|---|---|---|
| 1778137600 | 11.11° C | 95% | 1021.6 hPa | 0 mm | - | 0 W/m² | - |
| 1778136999 | 11.67° C | 95% | 1021.5 hPa | 0 mm | - | 0 W/m² | - |
| 1778136400 | 11.67° C | 95% | 1021.5 hPa | 0 mm | - | 0 W/m² | - |
| 1778135796 | 11.67° C | 95% | 1021.5 hPa | 0 mm | - | 0 W/m² | - |
| 1778135195 | 11.67° C | 95% | 1021.5 hPa | 0 mm | - | 0 W/m² | - |
| 1778134590 | 11.67° C | 94% | 1021.6 hPa | 0 mm | - | 0 W/m² | - |
| 1778133986 | 12.22° C | 94% | 1021.4 hPa | 0 mm | - | 0 W/m² | - |
| 1778133384 | 12.22° C | 94% | 1021.4 hPa | 0 mm | - | 0 W/m² | - |
| 1778132782 | 12.22° C | 94% | 1021.5 hPa | 0 mm | - | 0 W/m² | - |
| 1778132177 | 12.22° C | 94% | 1021.6 hPa | 0 mm | - | 0 W/m² | - |
| 1778131573 | 12.22° C | 93% | 1021.8 hPa | 0 mm | - | 0 W/m² | - |
| 1778130972 | 12.22° C | 93% | 1021.6 hPa | 0 mm | - | 0 W/m² | - |
| 1778130372 | 12.22° C | 93% | 1021.9 hPa | 0 mm | - | 0 W/m² | - |
| 1778129771 | 13.33° C | 92% | 1021.6 hPa | 0 mm | - | 0 W/m² | - |
| 1778129170 | 13.33° C | 92% | 1021.5 hPa | 0 mm | - | 0 W/m² | - |
| 1778128569 | 13.89° C | 90% | 1021.6 hPa | 0 mm | - | 0 W/m² | - |
| 1778127968 | 13.89° C | 90% | 1021.5 hPa | 0 mm | - | 0 W/m² | - |
| 1778127367 | 14.44° C | 89% | 1021.5 hPa | 0 mm | - | 0 W/m² | - |
| 1778126766 | 14.44° C | 88% | 1021.4 hPa | 0 mm | - | 0 W/m² | - |
| 1778126164 | 15° C | 87% | 1021.4 hPa | 0 mm | - | 0 W/m² | - |
| 1778125564 | 15° C | 86% | 1021.4 hPa | 0 mm | - | 0 W/m² | - |
| 1778124959 | 15.56° C | 86% | 1021.1 hPa | 0 mm | - | 0 W/m² | - |
| 1778124359 | 15.56° C | 84% | 1021 hPa | 0 mm | - | 0 W/m² | - |
| 1778123758 | 16.11° C | 83% | 1021.1 hPa | 0 mm | - | 0 W/m² | - |
| 1778123157 | 16.67° C | 81% | 1020.6 hPa | 0 mm | - | 1 W/m² | - |
* Rain latest hour (hover to see other rain measurements)
** Current wind speed in m/s (hover to see current wind gust speed)